Showing default

PORCUPINE 2, 1577

Orbit data source: Space-Track

PORCUPINE 2, 1577 is a payload satellite owned by NRL (US) in LEO that was launched on Fri, 13 Aug 1965 UTC via a THOR ABLESTAR launch vehicle from the Air Force Western Test Range (AFWTR). Payload-class satellites include a variety of spacecraft equipped with specific instruments for various scientific and technological missions. These include communications satellites like Starlink; space stations such as the ISS; scientific satellites like the Hubble; Earth observation satellites from companies like Planet Labs, Umbra, and HawkEye 360; GPS; miniature CubeSats for education and research; and military/defense satellites.

Loading next visibility...
Identifier
1577, 1965-065J
Orbit
LEO
Country
Flag of USUS
Related business
Manufacturer
NRL
Mission
Spacecraft
Bus & Motor
SURCAL, Unknown motor
Mass
5 kg wet, 5 kg dry
Launch date (UTC)
1965-08-13 (61 years ago)
Launch vehicle
THOR ABLESTAR
Launch site
Air Force Western Test Range (AFWTR)
Object type
Payload
Rocket body
Debris
Shape & HBR
BOX, 0.1 m
Radar Cross Section
Medium (>0.1 m² and <1 m²)

Expand to show TLE details & history
Last TLE update: 18 hours ago

TLE from 18 hours ago
0 PORCUPINE 2
1 01577U 65065J   26236.41139394  .00000092  00000-0  16078-3 0  9991
2 01577  90.0328 212.3128 0067823 271.4665 242.1316 13.36265184971768
Epoch: 2026-08-24T09:52Z
TLE epoch observation values (Epoch: 2026-08-24T09:52:24.436Z)
Latitude
27.12114°
Longitude
-88.46578°
Altitude
1,150.632 km
Speed
7.268 km/s
True Right ascension
02h 09m 19s
True Declination
26° 59' 21"
Sunlit
Object was in daylight at epoch
Visualization orbit readout
Latitude
Unknown
Longitude
Unknown
Altitude
Unknown
Speed
Unknown
Apparent Right ascension
Unknown
Apparent Declination
Unknown
Sunlit
N/A
Visualization observer readout
Local Sidereal Time
18:55:10
Azimuth
Unknown
Elevation
Unknown
Doppler factor
Unknown
Orbital elements
Apogee altitude
1,171.15 km
Perigee altitude
1,069.437 km
Semi-major axis
7,498.431 km
Eccentricity
0.00678
Inclination
90.0328°
RAAN
212.3128°
Arg. of periapsis
271.4665°
True anomaly
241.44727°
Mean anomaly
242.1316°
Eccentric anomaly
241.78916°
Mean motion
3.34262 °/min
Orbital period
107.7 mins
BSTAR
0.00016078
Loading maneuver chart data...
Computing Atmospheric mass density...

Documentation

Showing up to 5 results
|